Weather History for KT82 - September, 2013

Change the Weather History Date:

Wednesday, September 25, 2013

  Actual Average (KSAT) Record (KSAT)
Temperature  
Mean Temperature 76 °F 77 °F  
Max Temperature 90 °F 88 °F 105 °F (2005)
Min Temperature 62 °F 66 °F 50 °F (1989)
Degree Days  
Heating Degree Days 0 0  
Month to date heating degree days 0  
Since 1 July heating degree days 0  
Cooling Degree Days 11 12  
Month to date cooling degree days 386  
Year to date cooling degree days 2777  
Growing Degree Days 26 (Base 50)    
Moisture  
Dew Point 58 °F    
Average Humidity 57    
Maximum Humidity 90    
Minimum Humidity 30    
Precipitation  
Precipitation 0.00 in 0.10 in 3.27 in (1946)
Month to date precipitation 2.54  
Year to date precipitation 23.48  
Snow  
Snow 0.00 in - - ()
Month to date snowfall  
Since 1 July snowfall  
Since 1 September snowfall  
Snow Depth -    
Sea Level Pressure  
Sea Level Pressure 29.90 in    
Wind  
Wind Speed 3 mph (South)    
Max Wind Speed 12 mph    
Max Gust Speed 20 mph    
Visibility 10 miles    
Events      
T = Trace of Precipitation, MM = Missing Value Source: NWS Daily Summary

Daily Weather History Graph

Daily Weather History Graph

Search for Another Location

Airport or City:

Trip Planner

Search our weather history database for the weather conditions in past years. The results will help you decide how hot, cold, wet, or windy it might be!

Date:

Astronomy

Sep. 25, 2013 Rise Set
Actual Time 7:25 AM CDT 7:28 PM CDT
Civil Twilight 7:01 AM CDT 7:51 PM CDT
Nautical Twilight 6:34 AM CDT 8:19 PM CDT
Astronomical Twilight 6:05 AM CDT 8:47 PM CDT
Moon 11:57 PM CDT (9/25) 1:10 PM CDT (9/25)
Length of Visible Light 12h 50m
Length of Day
12h 02m
Waning Gibbous, 64% of the Moon is Illuminated
Sep 25
Waning Gibbous
Sep 26
Last Quarter
Oct 4
New
Oct 11
First Quarter
Oct 18
Full

Hourly Weather History & Observations

Time (CDT) Temp. Heat Index Dew Point Humidity Pressure Visibility Wind Dir Wind Speed Gust Speed Precip Events Conditions
12:15 AM 66.6 °F - 59.0 °F 77% 29.95 in 10.0 mi North 3.5 mph - N/A   Clear
12:35 AM 66.2 °F - 59.0 °F 78% 29.95 in 10.0 mi Calm Calm - N/A   Clear
12:55 AM 66.4 °F - 59.2 °F 78% 29.95 in 10.0 mi NW 3.5 mph - N/A   Clear
1:15 AM 65.3 °F - 58.8 °F 80% 29.95 in 10.0 mi Calm Calm - N/A   Clear
1:35 AM 65.7 °F - 58.6 °F 78% 29.95 in 10.0 mi West 5.8 mph - N/A   Clear
1:55 AM 64.6 °F - 58.1 °F 79% 29.95 in 10.0 mi Calm Calm - N/A   Clear
2:15 AM 63.1 °F - 58.1 °F 84% 29.95 in 10.0 mi Calm Calm - N/A   Clear
2:35 AM 64.9 °F - 58.5 °F 79% 29.94 in 10.0 mi Calm Calm - N/A   Mostly Cloudy
2:55 AM 65.3 °F - 59.0 °F 80% 29.94 in 10.0 mi Calm Calm - N/A   Overcast
3:15 AM 65.3 °F - 58.6 °F 79% 29.94 in 10.0 mi Calm Calm - N/A   Mostly Cloudy
3:35 AM 64.9 °F - 58.6 °F 80% 29.94 in 10.0 mi Calm Calm - N/A   Mostly Cloudy
3:55 AM 64.8 °F - 59.0 °F 82% 29.94 in 10.0 mi Calm Calm - N/A   Mostly Cloudy
4:15 AM 65.1 °F - 58.1 °F 78% 29.93 in 10.0 mi Calm Calm - N/A   Mostly Cloudy
4:35 AM 64.8 °F - 59.0 °F 82% 29.93 in 10.0 mi Calm Calm - N/A   Scattered Clouds
4:55 AM 63.5 °F - 58.3 °F 83% 29.93 in 10.0 mi Calm Calm - N/A   Mostly Cloudy
5:15 AM 64.0 °F - 58.5 °F 82% 29.93 in 10.0 mi Calm Calm - N/A   Mostly Cloudy
5:35 AM 63.9 °F - 58.5 °F 83% 29.93 in 10.0 mi Calm Calm - N/A   Mostly Cloudy
5:55 AM 63.7 °F - 58.3 °F 83% 29.93 in 10.0 mi West 3.5 mph - N/A   Scattered Clouds
6:15 AM 63.0 °F - 58.3 °F 85% 29.93 in 10.0 mi Calm Calm - N/A   Clear
6:35 AM 62.8 °F - 58.1 °F 85% 29.94 in 10.0 mi West 3.5 mph - N/A   Clear
6:55 AM 62.6 °F - 59.0 °F 88% 29.94 in 10.0 mi Calm Calm - N/A   Clear
7:15 AM 62.1 °F - 59.0 °F 90% 29.94 in 10.0 mi Calm Calm - N/A   Clear
7:35 AM 62.1 °F - 59.0 °F 90% 29.94 in 10.0 mi Calm Calm - N/A   Clear
7:55 AM 63.0 °F - 59.0 °F 87% 29.94 in 10.0 mi WNW 3.5 mph - N/A   Scattered Clouds
8:15 AM 64.4 °F - 59.2 °F 83% 29.95 in 10.0 mi Calm Calm - N/A   Clear
8:35 AM 65.5 °F - 59.7 °F 82% 29.95 in 10.0 mi Calm Calm - N/A   Clear
8:55 AM 67.5 °F - 60.3 °F 78% 29.95 in 10.0 mi Calm Calm - N/A   Clear
9:15 AM 70.2 °F - 60.4 °F 71% 29.95 in 10.0 mi Calm Calm - N/A   Clear
9:35 AM 73.8 °F - 61.2 °F 65% 29.95 in 10.0 mi Calm Calm - N/A   Clear
9:55 AM 76.3 °F - 61.0 °F 59% 29.95 in 10.0 mi Calm Calm - N/A   Clear
10:15 AM 78.4 °F - 60.8 °F 55% 29.96 in 10.0 mi Calm Calm - N/A   Clear
10:35 AM 81.1 °F 82.0 °F 61.3 °F 51% 29.96 in 10.0 mi WSW 5.8 mph - N/A   Clear
10:55 AM 84.0 °F 84.0 °F 59.9 °F 44% 29.96 in 10.0 mi SSW 10.4 mph - N/A   Clear
11:15 AM 84.2 °F 84.0 °F 59.7 °F 43% 29.96 in 10.0 mi South 8.1 mph - N/A   Clear
11:35 AM 84.9 °F 84.6 °F 59.2 °F 42% 29.95 in 10.0 mi SSW 11.5 mph - N/A   Clear
11:55 AM 86.0 °F 85.0 °F 57.7 °F 38% 29.95 in 10.0 mi South 9.2 mph - N/A   Clear
12:15 PM 86.4 °F 85.6 °F 59.0 °F 39% 29.94 in 10.0 mi South 9.2 mph - N/A   Clear
12:35 PM 86.9 °F 86.3 °F 58.8 °F 39% 29.94 in 10.0 mi SSW 8.1 mph - N/A   Clear
1:15 PM 88.0 °F 86.5 °F 56.5 °F 34% 29.92 in 10.0 mi SW 5.8 mph 10.4 mph N/A   Clear
1:55 PM 86.9 °F 85.3 °F 55.2 °F 34% 29.90 in 10.0 mi South 4.6 mph - N/A   Scattered Clouds
2:15 PM 87.6 °F 85.9 °F 55.2 °F 33% 29.89 in 10.0 mi WSW 8.1 mph - N/A   Mostly Cloudy
2:35 PM 89.6 °F 87.9 °F 56.1 °F 32% 29.88 in 10.0 mi South 9.2 mph - N/A   Mostly Cloudy
2:55 PM 89.6 °F 87.9 °F 55.8 °F 32% 29.87 in 10.0 mi South 6.9 mph - N/A   Scattered Clouds
3:15 PM 89.6 °F 87.9 °F 55.9 °F 32% 29.87 in 10.0 mi SE 5.8 mph 9.2 mph N/A   Mostly Cloudy
3:35 PM 88.7 °F 86.9 °F 55.2 °F 32% 29.86 in 10.0 mi South 9.2 mph - N/A   Scattered Clouds
3:55 PM 88.9 °F 86.9 °F 54.7 °F 31% 29.86 in 10.0 mi SSW 5.8 mph - N/A   Scattered Clouds
4:15 PM 90.1 °F 88.1 °F 55.2 °F 30% 29.85 in 10.0 mi South 11.5 mph 19.6 mph N/A   Scattered Clouds
4:35 PM 90.5 °F 88.5 °F 55.0 °F 30% 29.85 in 10.0 mi South 6.9 mph - N/A   Mostly Cloudy
4:55 PM 90.1 °F 88.1 °F 54.7 °F 30% 29.84 in 10.0 mi SSE 6.9 mph - N/A   Scattered Clouds
5:15 PM 90.0 °F 87.9 °F 54.9 °F 30% 29.84 in 10.0 mi SSE 10.4 mph - N/A   Mostly Cloudy
5:35 PM 90.5 °F 88.7 °F 55.6 °F 31% 29.84 in 10.0 mi SSE 6.9 mph - N/A   Mostly Cloudy
5:55 PM 89.8 °F 87.9 °F 55.4 °F 31% 29.83 in 10.0 mi SSE 9.2 mph - N/A   Mostly Cloudy
6:15 PM 88.7 °F 86.9 °F 55.6 °F 32% 29.83 in 10.0 mi South 6.9 mph - N/A   Scattered Clouds
6:35 PM 88.0 °F 86.3 °F 55.2 °F 33% 29.83 in 10.0 mi South 6.9 mph - N/A   Clear
6:55 PM 86.9 °F 85.1 °F 54.5 °F 33% 29.83 in 10.0 mi SSE 6.9 mph - N/A   Clear
7:15 PM 85.6 °F 84.1 °F 54.7 °F 35% 29.84 in 10.0 mi SSE 5.8 mph - N/A   Clear
7:35 PM 82.8 °F 82.1 °F 56.5 °F 40% 29.84 in 10.0 mi South 4.6 mph - N/A   Clear
7:55 PM 82.4 °F 82.0 °F 56.8 °F 42% 29.84 in 10.0 mi South 5.8 mph - N/A   Clear
8:15 PM 81.0 °F 81.0 °F 57.4 °F 44% 29.84 in 10.0 mi South 4.6 mph - N/A   Clear
8:35 PM 80.8 °F 80.9 °F 57.2 °F 44% 29.85 in 10.0 mi South 6.9 mph - N/A   Clear
8:55 PM 80.8 °F 80.9 °F 56.8 °F 44% 29.85 in 10.0 mi SSE 5.8 mph - N/A   Clear
9:15 PM 80.4 °F 80.6 °F 56.7 °F 44% 29.86 in 10.0 mi SSE 5.8 mph - N/A   Clear
9:35 PM 79.2 °F - 56.5 °F 46% 29.86 in 10.0 mi SSE 5.8 mph - N/A   Clear
9:55 PM 79.3 °F - 56.3 °F 45% 29.87 in 10.0 mi SSE 5.8 mph - N/A   Clear
10:15 PM 78.3 °F - 56.3 °F 47% 29.87 in 10.0 mi SSE 5.8 mph - N/A   Clear
10:35 PM 77.4 °F - 56.5 °F 48% 29.87 in 10.0 mi SSE 5.8 mph - N/A   Clear
10:55 PM 77.0 °F - 56.3 °F 49% 29.87 in 10.0 mi SSE 5.8 mph - N/A   Clear
11:15 PM 76.3 °F - 56.5 °F 50% 29.87 in 10.0 mi SSE 4.6 mph - N/A   Clear
11:35 PM 75.6 °F - 56.3 °F 51% 29.87 in 10.0 mi South 4.6 mph - N/A   Clear
11:55 PM 74.5 °F - 56.5 °F 53% 29.87 in 10.0 mi Calm Calm - N/A   Clear